Location: Le Castellard
(44.1862°N, 6.1301°E)
Time: 21:14:05
(UTC+00:00)

FENGYUN 3A - Pass Details

Date: 18 January 2020
Orbit: 824 x 836 km, 98.4° (Epoch: 16 February)

Event Time Altitude Azimuth Distance (km) Brightness Sun altitude
Rises 05:24:41 0° 9° (N) 3,375 6.8 -17.9°
Reaches altitude 10° 05:27:04 10° 5° (N) 2,439 6.0 -17.5°
Maximum altitude 05:32:20 56° 289° (WNW) 980 3.7 -16.5°
Drops below altitude 10° 05:37:35 10° 212° (SSW) 2,430 5.9 -15.6°
Sets 05:39:58 0° 208° (SSW) 3,361 6.7 -15.2°
